Year,Month,Day,Hour,Minute,Value (Times are PST for temperature in C)
2006,03,12,00,00,4.30
2006,03,12,00,01,4.30
2006,03,12,00,02,4.30
2006,03,12,00,03,4.40
2006,03,12,00,04,4.40
2006,03,12,00,05,4.40
2006,03,12,00,06,4.40
2006,03,12,00,07,4.30
2006,03,12,00,08,4.30
2006,03,12,00,09,4.20
2006,03,12,00,10,4.20
2006,03,12,00,11,4.20
2006,03,12,00,12,4.10
2006,03,12,00,13,4.00
2006,03,12,00,14,3.90
2006,03,12,00,15,3.90
2006,03,12,00,16,3.80
2006,03,12,00,17,3.80
2006,03,12,00,18,3.80
2006,03,12,00,19,3.70
2006,03,12,00,20,3.70
2006,03,12,00,21,3.60
2006,03,12,00,22,3.60
2006,03,12,00,23,3.50
2006,03,12,00,24,3.50
2006,03,12,00,25,3.40
2006,03,12,00,26,3.40
2006,03,12,00,27,3.30
2006,03,12,00,28,3.30
2006,03,12,00,29,3.30
2006,03,12,00,30,3.20
2006,03,12,00,31,3.20
2006,03,12,00,32,3.10
2006,03,12,00,33,3.10
2006,03,12,00,34,3.10
2006,03,12,00,35,3.00
2006,03,12,00,36,2.90
2006,03,12,00,37,2.90
2006,03,12,00,38,2.90
2006,03,12,00,39,2.90
2006,03,12,00,40,2.80
2006,03,12,00,41,2.80
2006,03,12,00,42,2.80
2006,03,12,00,43,2.80
2006,03,12,00,44,2.80
2006,03,12,00,45,2.80
2006,03,12,00,46,2.80
2006,03,12,00,47,2.90
2006,03,12,00,48,2.90
2006,03,12,00,49,2.90
2006,03,12,00,50,2.90
2006,03,12,00,51,2.90
2006,03,12,00,52,2.90
2006,03,12,00,53,2.90
2006,03,12,00,54,2.90
2006,03,12,00,55,2.90
2006,03,12,00,56,2.90
2006,03,12,00,57,2.90
2006,03,12,00,58,2.90
2006,03,12,00,59,2.90
2006,03,12,01,00,2.80
2006,03,12,01,01,2.80
2006,03,12,01,02,2.80
2006,03,12,01,03,2.80
2006,03,12,01,04,2.70
2006,03,12,01,05,2.60
2006,03,12,01,06,2.50
2006,03,12,01,07,2.40
2006,03,12,01,08,2.30
2006,03,12,01,09,2.30
2006,03,12,01,10,2.20
2006,03,12,01,11,2.20
2006,03,12,01,12,2.20
2006,03,12,01,13,2.10
2006,03,12,01,14,2.10
2006,03,12,01,15,2.00
2006,03,12,01,16,2.00
2006,03,12,01,17,2.00
2006,03,12,01,18,1.90
2006,03,12,01,19,2.00
2006,03,12,01,20,2.10
2006,03,12,01,21,2.10
2006,03,12,01,22,2.10
2006,03,12,01,23,2.00
2006,03,12,01,24,2.00
2006,03,12,01,25,1.90
2006,03,12,01,26,1.90
2006,03,12,01,27,1.90
2006,03,12,01,28,1.80
2006,03,12,01,29,1.80
2006,03,12,01,30,1.70
2006,03,12,01,31,1.70
2006,03,12,01,32,1.60
2006,03,12,01,33,1.50
2006,03,12,01,34,1.50
2006,03,12,01,35,1.40
2006,03,12,01,36,1.40
2006,03,12,01,37,1.40
2006,03,12,01,38,1.40
2006,03,12,01,39,1.30
2006,03,12,01,40,1.30
2006,03,12,01,41,1.30
2006,03,12,01,42,1.20
2006,03,12,01,43,1.10
2006,03,12,01,44,1.10
2006,03,12,01,45,1.00
2006,03,12,01,46,1.00
2006,03,12,01,47,1.00
2006,03,12,01,48,1.10
2006,03,12,01,49,1.20
2006,03,12,01,50,1.20
2006,03,12,01,51,1.30
2006,03,12,01,52,1.40
2006,03,12,01,53,1.50
2006,03,12,01,54,1.50
2006,03,12,01,55,1.60
2006,03,12,01,56,1.70
2006,03,12,01,57,1.80
2006,03,12,01,58,1.80
2006,03,12,01,59,1.90
2006,03,12,02,00,2.00
2006,03,12,02,01,2.10
2006,03,12,02,02,2.10
2006,03,12,02,03,2.20
2006,03,12,02,04,2.20
2006,03,12,02,05,2.30
2006,03,12,02,06,2.30
2006,03,12,02,07,2.40
2006,03,12,02,08,2.40
2006,03,12,02,09,2.50
2006,03,12,02,10,2.50
2006,03,12,02,11,2.50
2006,03,12,02,12,2.60
2006,03,12,02,13,2.70
2006,03,12,02,14,2.70
2006,03,12,02,15,2.70
2006,03,12,02,16,2.80
2006,03,12,02,17,2.90
2006,03,12,02,18,2.90
2006,03,12,02,19,2.90
2006,03,12,02,20,2.90
2006,03,12,02,21,3.00
2006,03,12,02,22,3.10
2006,03,12,02,23,3.10
2006,03,12,02,24,3.10
2006,03,12,02,25,3.10
2006,03,12,02,26,3.10
2006,03,12,02,27,3.20
2006,03,12,02,28,3.20
2006,03,12,02,29,3.20
2006,03,12,02,30,3.20
2006,03,12,02,31,3.30
2006,03,12,02,32,3.30
2006,03,12,02,33,3.30
2006,03,12,02,34,3.30
2006,03,12,02,35,3.30
2006,03,12,02,36,3.30
2006,03,12,02,37,3.30
2006,03,12,02,38,3.30
2006,03,12,02,39,3.30
2006,03,12,02,40,3.30
2006,03,12,02,41,3.30
2006,03,12,02,42,3.40
2006,03,12,02,43,3.40
2006,03,12,02,44,3.40
2006,03,12,02,45,3.40
2006,03,12,02,46,3.40
2006,03,12,02,47,3.40
2006,03,12,02,48,3.40
2006,03,12,02,49,3.40
2006,03,12,02,50,3.40
2006,03,12,02,51,3.40
2006,03,12,02,52,3.40
2006,03,12,02,53,3.40
2006,03,12,02,54,3.40
2006,03,12,02,55,3.40
2006,03,12,02,56,3.40
2006,03,12,02,57,3.40
2006,03,12,02,58,3.40
2006,03,12,02,59,3.40
2006,03,12,03,00,3.40
2006,03,12,03,01,3.40
2006,03,12,03,02,3.40
2006,03,12,03,03,3.40
2006,03,12,03,04,3.40
2006,03,12,03,05,3.30
2006,03,12,03,06,3.30
2006,03,12,03,07,3.30
2006,03,12,03,08,3.30
2006,03,12,03,09,3.30
2006,03,12,03,10,3.30
2006,03,12,03,11,3.30
2006,03,12,03,12,3.30
2006,03,12,03,13,3.30
2006,03,12,03,14,3.30
2006,03,12,03,15,3.30
2006,03,12,03,16,3.30
2006,03,12,03,17,3.30
2006,03,12,03,18,3.30
2006,03,12,03,19,3.30
2006,03,12,03,20,3.30
2006,03,12,03,21,3.30
2006,03,12,03,22,3.30
2006,03,12,03,23,3.30
2006,03,12,03,24,3.30
2006,03,12,03,25,3.30
2006,03,12,03,26,3.30
2006,03,12,03,27,3.30
2006,03,12,03,28,3.30
2006,03,12,03,29,3.30
2006,03,12,03,30,3.30
2006,03,12,03,31,3.30
2006,03,12,03,32,3.30
2006,03,12,03,33,3.20
2006,03,12,03,34,3.10
2006,03,12,03,35,3.10
2006,03,12,03,36,3.00
2006,03,12,03,37,2.90
2006,03,12,03,38,2.80
2006,03,12,03,39,2.70
2006,03,12,03,40,2.70
2006,03,12,03,41,2.70
2006,03,12,03,42,2.70
2006,03,12,03,43,2.60
2006,03,12,03,44,2.60
2006,03,12,03,45,2.50
2006,03,12,03,46,2.50
2006,03,12,03,47,2.40
2006,03,12,03,48,2.40
2006,03,12,03,49,2.40
2006,03,12,03,50,2.40
2006,03,12,03,51,2.30
2006,03,12,03,52,2.30
2006,03,12,03,53,2.30
2006,03,12,03,54,2.30
2006,03,12,03,55,2.20
2006,03,12,03,56,2.30
2006,03,12,03,57,2.30
2006,03,12,03,58,2.40
2006,03,12,03,59,2.40
2006,03,12,04,00,2.40
2006,03,12,04,01,2.40
2006,03,12,04,02,2.40
2006,03,12,04,03,2.40
2006,03,12,04,04,2.30
2006,03,12,04,05,2.40
2006,03,12,04,06,2.30
2006,03,12,04,07,2.30
2006,03,12,04,08,2.30
2006,03,12,04,09,2.30
2006,03,12,04,10,2.30
2006,03,12,04,11,2.30
2006,03,12,04,12,2.20
2006,03,12,04,13,2.20
2006,03,12,04,14,2.20
2006,03,12,04,15,2.20
2006,03,12,04,16,2.20
2006,03,12,04,17,2.20
2006,03,12,04,18,2.20
2006,03,12,04,19,2.20
2006,03,12,04,20,2.20
2006,03,12,04,21,2.20
2006,03,12,04,22,2.10
2006,03,12,04,23,2.10
2006,03,12,04,24,2.00
2006,03,12,04,25,2.00
2006,03,12,04,26,1.90
2006,03,12,04,27,1.80
2006,03,12,04,28,1.80
2006,03,12,04,29,1.80
2006,03,12,04,30,1.70
2006,03,12,04,31,1.70
2006,03,12,04,32,1.60
2006,03,12,04,33,1.60
2006,03,12,04,34,1.50
2006,03,12,04,35,1.50
2006,03,12,04,36,1.40
2006,03,12,04,37,1.30
2006,03,12,04,38,1.30
2006,03,12,04,39,1.30
2006,03,12,04,40,1.30
2006,03,12,04,41,1.20
2006,03,12,04,42,1.20
2006,03,12,04,43,1.20
2006,03,12,04,44,1.10
2006,03,12,04,45,1.10
2006,03,12,04,46,1.10
2006,03,12,04,47,1.10
2006,03,12,04,48,1.10
2006,03,12,04,49,1.00
2006,03,12,04,50,1.00
2006,03,12,04,51,1.00
2006,03,12,04,52,1.00
2006,03,12,04,53,1.00
2006,03,12,04,54,1.00
2006,03,12,04,55,1.00
2006,03,12,04,56,1.00
2006,03,12,04,57,1.00
2006,03,12,04,58,1.00
2006,03,12,04,59,1.00
2006,03,12,05,00,1.00
2006,03,12,05,01,1.00
2006,03,12,05,02,1.00
2006,03,12,05,03,1.00
2006,03,12,05,04,1.00
2006,03,12,05,05,1.00
2006,03,12,05,06,1.00
2006,03,12,05,07,1.00
2006,03,12,05,08,1.00
2006,03,12,05,09,0.90
2006,03,12,05,10,0.90
2006,03,12,05,11,0.80
2006,03,12,05,12,0.80
2006,03,12,05,13,0.80
2006,03,12,05,14,0.80
2006,03,12,05,15,0.80
2006,03,12,05,16,0.80
2006,03,12,05,17,0.80
2006,03,12,05,18,0.80
2006,03,12,05,19,0.70
2006,03,12,05,20,0.70
2006,03,12,05,21,0.60
2006,03,12,05,22,0.60
2006,03,12,05,23,0.60
2006,03,12,05,24,0.50
2006,03,12,05,25,0.50
2006,03,12,05,26,0.50
2006,03,12,05,27,0.40
2006,03,12,05,28,0.40
2006,03,12,05,29,0.40
2006,03,12,05,30,0.40
2006,03,12,05,31,0.40
2006,03,12,05,32,0.40
2006,03,12,05,33,0.40
2006,03,12,05,34,0.40
2006,03,12,05,35,0.30
2006,03,12,05,36,0.30
2006,03,12,05,37,0.30
2006,03,12,05,38,0.30
2006,03,12,05,39,0.30
2006,03,12,05,40,0.30
2006,03,12,05,41,0.20
2006,03,12,05,42,0.20
2006,03,12,05,43,0.20
2006,03,12,05,44,0.20
2006,03,12,05,45,0.20
2006,03,12,05,46,0.20
2006,03,12,05,47,0.20
2006,03,12,05,48,0.20
2006,03,12,05,49,0.10
2006,03,12,05,50,0.10
2006,03,12,05,51,0.10
2006,03,12,05,52,0.10
2006,03,12,05,53,0.10
2006,03,12,05,54,0.00
2006,03,12,05,55,-0.10
2006,03,12,05,56,-0.10
2006,03,12,05,57,-0.10
2006,03,12,05,58,-0.10
2006,03,12,05,59,-0.10
2006,03,12,06,00,-0.10
2006,03,12,06,01,-0.10
2006,03,12,06,02,-0.10
2006,03,12,06,03,-0.10
2006,03,12,06,04,-0.10
2006,03,12,06,05,-0.10
2006,03,12,06,06,-0.20
2006,03,12,06,07,-0.20
2006,03,12,06,08,-0.20
2006,03,12,06,09,-0.30
2006,03,12,06,10,-0.30
2006,03,12,06,11,-0.30
2006,03,12,06,12,-0.30
2006,03,12,06,13,-0.30
2006,03,12,06,14,-0.20
2006,03,12,06,15,-0.20
2006,03,12,06,16,-0.20
2006,03,12,06,17,-0.20
2006,03,12,06,18,-0.10
2006,03,12,06,19,-0.10
2006,03,12,06,20,-0.10
2006,03,12,06,21,-0.10
2006,03,12,06,22,-0.10
2006,03,12,06,23,-0.10
2006,03,12,06,24,-0.20
2006,03,12,06,25,-0.20
2006,03,12,06,26,-0.10
2006,03,12,06,27,-0.10
2006,03,12,06,28,-0.20
2006,03,12,06,29,-0.20
2006,03,12,06,30,-0.20
2006,03,12,06,31,-0.30
2006,03,12,06,32,-0.30
2006,03,12,06,33,-0.40
2006,03,12,06,34,-0.40
2006,03,12,06,35,-0.40
2006,03,12,06,36,-0.40
2006,03,12,06,37,-0.40
2006,03,12,06,38,-0.60
2006,03,12,06,39,-0.60
2006,03,12,06,40,-0.60
2006,03,12,06,41,-0.60
2006,03,12,06,42,-0.60
2006,03,12,06,43,-0.60
2006,03,12,06,44,-0.60
2006,03,12,06,45,-0.60
2006,03,12,06,46,-0.70
2006,03,12,06,47,-0.70
2006,03,12,06,48,-0.70
2006,03,12,06,49,-0.70
2006,03,12,06,50,-0.80
2006,03,12,06,51,-0.80
2006,03,12,06,52,-0.80
2006,03,12,06,53,-0.80
2006,03,12,06,54,-0.80
2006,03,12,06,55,-0.80
2006,03,12,06,56,-0.80
2006,03,12,06,57,-0.80
2006,03,12,06,58,-0.80
2006,03,12,06,59,-0.90
2006,03,12,07,00,-0.90
2006,03,12,07,01,-0.90
2006,03,12,07,02,-0.90
2006,03,12,07,03,-0.90
2006,03,12,07,04,-0.90
2006,03,12,07,05,-0.90
2006,03,12,07,06,-0.90
2006,03,12,07,07,-0.90
2006,03,12,07,08,-0.90
2006,03,12,07,09,-0.90
2006,03,12,07,10,-1.00
2006,03,12,07,11,-1.10
2006,03,12,07,12,-1.10
2006,03,12,07,13,-1.10
2006,03,12,07,14,-1.00
2006,03,12,07,15,-0.90
2006,03,12,07,16,-0.90
2006,03,12,07,17,-0.90
2006,03,12,07,18,-0.80
2006,03,12,07,19,-0.80
2006,03,12,07,20,-0.70
2006,03,12,07,21,-0.70
2006,03,12,07,22,-0.70
2006,03,12,07,23,-0.60
2006,03,12,07,24,-0.60
2006,03,12,07,25,-0.60
2006,03,12,07,26,-0.60
2006,03,12,07,27,-0.50
2006,03,12,07,28,-0.40
2006,03,12,07,29,-0.40
2006,03,12,07,30,-0.30
2006,03,12,07,31,-0.30
2006,03,12,07,32,-0.20
2006,03,12,07,33,-0.10
2006,03,12,07,34,0.00
2006,03,12,07,35,0.10
2006,03,12,07,36,0.10
2006,03,12,07,37,0.20
2006,03,12,07,38,0.30
2006,03,12,07,39,0.40
2006,03,12,07,40,0.40
2006,03,12,07,41,0.60
2006,03,12,07,42,0.70
2006,03,12,07,43,0.80
2006,03,12,07,44,0.90
2006,03,12,07,45,1.10
2006,03,12,07,46,1.30
2006,03,12,07,47,1.40
2006,03,12,07,48,1.60
2006,03,12,07,49,1.70
2006,03,12,07,50,1.90
2006,03,12,07,51,2.00
2006,03,12,07,52,2.20
2006,03,12,07,53,2.30
2006,03,12,07,54,2.40
2006,03,12,07,55,2.60
2006,03,12,07,56,2.70
2006,03,12,07,57,2.70
2006,03,12,07,58,2.80
2006,03,12,07,59,2.80
2006,03,12,08,00,2.80
2006,03,12,08,01,2.80
2006,03,12,08,02,2.80
2006,03,12,08,03,2.90
2006,03,12,08,04,2.90
2006,03,12,08,05,2.90
2006,03,12,08,06,2.90
2006,03,12,08,07,3.10
2006,03,12,08,08,3.10
2006,03,12,08,09,3.20
2006,03,12,08,10,3.30
2006,03,12,08,11,3.30
2006,03,12,08,12,3.50
2006,03,12,08,13,3.60
2006,03,12,08,14,3.60
2006,03,12,08,15,3.80
2006,03,12,08,16,3.80
2006,03,12,08,17,3.90
2006,03,12,08,18,4.00
2006,03,12,08,19,4.10
2006,03,12,08,20,4.20
2006,03,12,08,21,4.20
2006,03,12,08,22,4.30
2006,03,12,08,23,4.40
2006,03,12,08,24,4.40
2006,03,12,08,25,4.50
2006,03,12,08,26,4.50
2006,03,12,08,27,4.60
2006,03,12,08,28,4.60
2006,03,12,08,29,4.60
2006,03,12,08,30,4.60
2006,03,12,08,31,4.70
2006,03,12,08,32,4.70
2006,03,12,08,33,4.80
2006,03,12,08,34,4.90
2006,03,12,08,35,4.90
2006,03,12,08,36,4.90
2006,03,12,08,37,4.90
2006,03,12,08,38,4.90
2006,03,12,08,39,5.00
2006,03,12,08,40,5.10
2006,03,12,08,41,5.10
2006,03,12,08,42,5.10
2006,03,12,08,43,5.10
2006,03,12,08,44,5.20
2006,03,12,08,45,5.10
2006,03,12,08,46,5.10
2006,03,12,08,47,5.20
2006,03,12,08,48,5.30
2006,03,12,08,49,5.30
2006,03,12,08,50,5.30
2006,03,12,08,51,5.20
2006,03,12,08,52,5.20
2006,03,12,08,53,5.20
2006,03,12,08,54,5.10
2006,03,12,08,55,5.10
2006,03,12,08,56,5.20
2006,03,12,08,57,5.20
2006,03,12,08,58,5.30
2006,03,12,08,59,5.30
2006,03,12,09,00,5.30
2006,03,12,09,01,5.30
2006,03,12,09,02,5.40
2006,03,12,09,03,5.40
2006,03,12,09,04,5.40
2006,03,12,09,05,5.50
2006,03,12,09,06,5.50
2006,03,12,09,07,5.50
2006,03,12,09,08,5.50
2006,03,12,09,09,5.50
2006,03,12,09,10,5.60
2006,03,12,09,11,5.60
2006,03,12,09,12,5.60
2006,03,12,09,13,5.60
2006,03,12,09,14,5.50
2006,03,12,09,15,5.50
2006,03,12,09,16,5.40
2006,03,12,09,17,5.40
2006,03,12,09,18,5.40
2006,03,12,09,19,5.40
2006,03,12,09,20,5.40
2006,03,12,09,21,5.50
2006,03,12,09,22,5.50
2006,03,12,09,23,5.50
2006,03,12,09,24,5.50
2006,03,12,09,25,5.60
2006,03,12,09,26,5.60
2006,03,12,09,27,5.60
2006,03,12,09,28,5.70
2006,03,12,09,29,5.70
2006,03,12,09,30,5.70
2006,03,12,09,31,5.70
2006,03,12,09,32,5.70
2006,03,12,09,33,5.70
2006,03,12,09,34,5.60
2006,03,12,09,35,5.60
2006,03,12,09,36,5.60
2006,03,12,09,37,5.60
2006,03,12,09,38,5.60
2006,03,12,09,39,5.70
2006,03,12,09,40,5.60
2006,03,12,09,41,5.50
2006,03,12,09,42,5.50
2006,03,12,09,43,5.50
2006,03,12,09,44,5.50
2006,03,12,09,45,5.50
2006,03,12,09,46,5.50
2006,03,12,09,47,5.60
2006,03,12,09,48,5.60
2006,03,12,09,49,5.70
2006,03,12,09,50,5.70
2006,03,12,09,51,5.70
2006,03,12,09,52,5.70
2006,03,12,09,53,5.80
2006,03,12,09,54,5.80
2006,03,12,09,55,5.90
2006,03,12,09,56,5.90
2006,03,12,09,57,6.00
2006,03,12,09,58,5.90
2006,03,12,09,59,5.90
2006,03,12,10,00,5.90
2006,03,12,10,01,5.90
2006,03,12,10,02,5.90
2006,03,12,10,03,5.90
2006,03,12,10,04,6.00
2006,03,12,10,05,6.00
2006,03,12,10,06,6.10
2006,03,12,10,07,6.10
2006,03,12,10,08,6.20
2006,03,12,10,09,6.20
2006,03,12,10,10,6.10
2006,03,12,10,11,6.10
2006,03,12,10,12,6.10
2006,03,12,10,13,6.10
2006,03,12,10,14,6.10
2006,03,12,10,15,6.10
2006,03,12,10,16,6.10
2006,03,12,10,17,6.10
2006,03,12,10,18,6.10
2006,03,12,10,19,6.20
2006,03,12,10,20,6.20
2006,03,12,10,21,6.20
2006,03,12,10,22,6.20
2006,03,12,10,23,6.20
2006,03,12,10,24,6.20
2006,03,12,10,25,6.20
2006,03,12,10,26,6.30
2006,03,12,10,27,6.30
2006,03,12,10,28,6.20
2006,03,12,10,29,6.20
2006,03,12,10,30,6.30
2006,03,12,10,31,6.20
2006,03,12,10,32,6.20
2006,03,12,10,33,6.20
2006,03,12,10,34,6.20
2006,03,12,10,35,6.20
2006,03,12,10,36,6.20
2006,03,12,10,37,6.20
2006,03,12,10,38,6.20
2006,03,12,10,39,6.20
2006,03,12,10,40,6.40
2006,03,12,10,41,6.40
2006,03,12,10,42,6.50
2006,03,12,10,43,6.50
2006,03,12,10,44,6.40
2006,03,12,10,45,6.40
2006,03,12,10,46,6.40
2006,03,12,10,47,6.40
2006,03,12,10,48,6.40
2006,03,12,10,49,6.40
2006,03,12,10,50,6.50
2006,03,12,10,51,6.50
2006,03,12,10,52,6.50
2006,03,12,10,53,6.40
2006,03,12,10,54,6.40
2006,03,12,10,55,6.50
2006,03,12,10,56,6.60
2006,03,12,10,57,6.60
2006,03,12,10,58,6.60
2006,03,12,10,59,6.60
2006,03,12,11,00,6.60
2006,03,12,11,01,6.60
2006,03,12,11,02,6.60
2006,03,12,11,03,6.70
2006,03,12,11,04,6.70
2006,03,12,11,05,6.70
2006,03,12,11,06,6.70
2006,03,12,11,07,6.70
2006,03,12,11,08,6.60
2006,03,12,11,09,6.60
2006,03,12,11,10,6.70
2006,03,12,11,11,6.80
2006,03,12,11,12,6.80
2006,03,12,11,13,6.80
2006,03,12,11,14,6.80
2006,03,12,11,15,6.80
2006,03,12,11,16,6.80
2006,03,12,11,17,6.90
2006,03,12,11,18,6.80
2006,03,12,11,19,6.80
2006,03,12,11,20,6.70
2006,03,12,11,21,6.70
2006,03,12,11,22,6.70
2006,03,12,11,23,6.70
2006,03,12,11,24,6.70
2006,03,12,11,25,6.70
2006,03,12,11,26,6.70
2006,03,12,11,27,6.60
2006,03,12,11,28,6.60
2006,03,12,11,29,6.70
2006,03,12,11,30,6.70
2006,03,12,11,31,6.70
2006,03,12,11,32,6.70
2006,03,12,11,33,6.80
2006,03,12,11,34,6.80
2006,03,12,11,35,6.80
2006,03,12,11,36,6.80
2006,03,12,11,37,6.80
2006,03,12,11,38,6.80
2006,03,12,11,39,6.80
2006,03,12,11,40,6.90
2006,03,12,11,41,6.90
2006,03,12,11,42,7.00
2006,03,12,11,43,7.10
2006,03,12,11,44,7.20
2006,03,12,11,45,7.20
2006,03,12,11,46,7.20
2006,03,12,11,47,7.20
2006,03,12,11,48,7.20
2006,03,12,11,49,7.20
2006,03,12,11,50,7.20
2006,03,12,11,51,7.20
2006,03,12,11,52,7.20
2006,03,12,11,53,7.20
2006,03,12,11,54,7.30
2006,03,12,11,55,7.30
2006,03,12,11,56,7.30
2006,03,12,11,57,7.30
2006,03,12,11,58,7.30
2006,03,12,11,59,7.40
2006,03,12,12,00,7.40
2006,03,12,12,01,7.40
2006,03,12,12,02,7.40
2006,03,12,12,03,7.40
2006,03,12,12,04,7.40
2006,03,12,12,05,7.40
2006,03,12,12,06,7.40
2006,03,12,12,07,7.50
2006,03,12,12,08,7.50
2006,03,12,12,09,7.50
2006,03,12,12,10,7.50
2006,03,12,12,11,7.50
2006,03,12,12,12,7.60
2006,03,12,12,13,7.60
2006,03,12,12,14,7.50
2006,03,12,12,15,7.50
2006,03,12,12,16,7.40
2006,03,12,12,17,7.30
2006,03,12,12,18,7.40
2006,03,12,12,19,7.40
2006,03,12,12,20,7.40
2006,03,12,12,21,7.50
2006,03,12,12,22,7.50
2006,03,12,12,23,7.60
2006,03,12,12,24,7.50
2006,03,12,12,25,7.50
2006,03,12,12,26,7.60
2006,03,12,12,27,7.60
2006,03,12,12,28,7.60
2006,03,12,12,29,7.60
2006,03,12,12,30,7.60
2006,03,12,12,31,7.60
2006,03,12,12,32,7.60
2006,03,12,12,33,7.60
2006,03,12,12,34,7.70
2006,03,12,12,35,7.70
2006,03,12,12,36,7.60
2006,03,12,12,37,7.60
2006,03,12,12,38,7.60
2006,03,12,12,39,7.70
2006,03,12,12,40,7.80
2006,03,12,12,41,7.80
2006,03,12,12,42,7.90
2006,03,12,12,43,8.00
2006,03,12,12,44,8.00
2006,03,12,12,45,8.00
2006,03,12,12,46,8.10
2006,03,12,12,47,8.10
2006,03,12,12,48,8.10
2006,03,12,12,49,8.10
2006,03,12,12,50,8.10
2006,03,12,12,51,8.20
2006,03,12,12,52,8.20
2006,03,12,12,53,8.20
2006,03,12,12,54,8.20
2006,03,12,12,55,8.20
2006,03,12,12,56,8.10
2006,03,12,12,57,8.00
2006,03,12,12,58,8.10
2006,03,12,12,59,8.10
2006,03,12,13,00,8.10
2006,03,12,13,01,8.20
2006,03,12,13,02,8.10
2006,03,12,13,03,8.10
2006,03,12,13,04,8.10
2006,03,12,13,05,8.10
2006,03,12,13,06,8.10
2006,03,12,13,07,7.90
2006,03,12,13,08,7.80
2006,03,12,13,09,7.80
2006,03,12,13,10,7.80
2006,03,12,13,11,7.70
2006,03,12,13,12,7.80
2006,03,12,13,13,7.80
2006,03,12,13,14,7.80
2006,03,12,13,15,7.90
2006,03,12,13,16,8.00
2006,03,12,13,17,8.10
2006,03,12,13,18,8.10
2006,03,12,13,19,8.00
2006,03,12,13,20,8.00
2006,03,12,13,21,8.00
2006,03,12,13,22,8.10
2006,03,12,13,23,8.10
2006,03,12,13,24,8.10
2006,03,12,13,25,8.10
2006,03,12,13,26,8.20
2006,03,12,13,27,8.20
2006,03,12,13,28,8.10
2006,03,12,13,29,8.00
2006,03,12,13,30,7.90
2006,03,12,13,31,7.90
2006,03,12,13,32,7.90
2006,03,12,13,33,8.00
2006,03,12,13,34,8.00
2006,03,12,13,35,8.10
2006,03,12,13,36,8.20
2006,03,12,13,37,8.20
2006,03,12,13,38,8.20
2006,03,12,13,39,8.20
2006,03,12,13,40,8.20
2006,03,12,13,41,8.30
2006,03,12,13,42,8.40
2006,03,12,13,43,8.40
2006,03,12,13,44,8.40
2006,03,12,13,45,8.40
2006,03,12,13,46,8.40
2006,03,12,13,47,8.40
2006,03,12,13,48,8.50
2006,03,12,13,49,8.50
2006,03,12,13,50,8.40
2006,03,12,13,51,8.40
2006,03,12,13,52,8.30
2006,03,12,13,53,8.20
2006,03,12,13,54,8.00
2006,03,12,13,55,7.90
2006,03,12,13,56,7.90
2006,03,12,13,57,8.00
2006,03,12,13,58,8.00
2006,03,12,13,59,8.10
2006,03,12,14,00,8.10
2006,03,12,14,01,8.10
2006,03,12,14,02,8.10
2006,03,12,14,03,8.10
2006,03,12,14,04,8.20
2006,03,12,14,05,8.20
2006,03,12,14,06,8.20
2006,03,12,14,07,8.20
2006,03,12,14,08,8.30
2006,03,12,14,09,8.30
2006,03,12,14,10,8.40
2006,03,12,14,11,8.50
2006,03,12,14,12,8.50
2006,03,12,14,13,8.50
2006,03,12,14,14,8.40
2006,03,12,14,15,8.50
2006,03,12,14,16,8.50
2006,03,12,14,17,8.60
2006,03,12,14,18,8.70
2006,03,12,14,19,8.70
2006,03,12,14,20,8.70
2006,03,12,14,21,8.70
2006,03,12,14,22,8.70
2006,03,12,14,23,8.70
2006,03,12,14,24,8.70
2006,03,12,14,25,8.60
2006,03,12,14,26,8.50
2006,03,12,14,27,8.60
2006,03,12,14,28,8.70
2006,03,12,14,29,8.70
2006,03,12,14,30,8.70
2006,03,12,14,31,8.70
2006,03,12,14,32,8.70
2006,03,12,14,33,8.70
2006,03,12,14,34,8.70
2006,03,12,14,35,8.70
2006,03,12,14,36,8.70
2006,03,12,14,37,8.70
2006,03,12,14,38,8.70
2006,03,12,14,39,8.70
2006,03,12,14,40,8.70
2006,03,12,14,41,8.70
2006,03,12,14,42,8.70
2006,03,12,14,43,8.70
2006,03,12,14,44,8.80
2006,03,12,14,45,8.70
2006,03,12,14,46,8.70
2006,03,12,14,47,8.80
2006,03,12,14,48,8.80
2006,03,12,14,49,8.80
2006,03,12,14,50,8.80
2006,03,12,14,51,8.80
2006,03,12,14,52,8.80
2006,03,12,14,53,8.80
2006,03,12,14,54,8.80
2006,03,12,14,55,8.80
2006,03,12,14,56,8.80
2006,03,12,14,57,8.90
2006,03,12,14,58,9.00
2006,03,12,14,59,9.00
2006,03,12,15,00,9.00
2006,03,12,15,01,8.90
2006,03,12,15,02,8.90
2006,03,12,15,03,8.90
2006,03,12,15,04,8.90
2006,03,12,15,05,8.90
2006,03,12,15,06,8.90
2006,03,12,15,07,8.90
2006,03,12,15,08,8.90
2006,03,12,15,09,8.90
2006,03,12,15,10,8.80
2006,03,12,15,11,8.90
2006,03,12,15,12,8.80
2006,03,12,15,13,8.80
2006,03,12,15,14,8.80
2006,03,12,15,15,8.90
2006,03,12,15,16,8.90
2006,03,12,15,17,8.90
2006,03,12,15,18,9.00
2006,03,12,15,19,9.00
2006,03,12,15,20,9.10
2006,03,12,15,21,9.10
2006,03,12,15,22,9.10
2006,03,12,15,23,9.10
2006,03,12,15,24,9.10
2006,03,12,15,25,9.20
2006,03,12,15,26,9.20
2006,03,12,15,27,9.30
2006,03,12,15,28,9.30
2006,03,12,15,29,9.30
2006,03,12,15,30,9.30
2006,03,12,15,31,9.30
2006,03,12,15,32,9.30
2006,03,12,15,33,9.30
2006,03,12,15,34,9.40
2006,03,12,15,35,9.40
2006,03,12,15,36,9.40
2006,03,12,15,37,9.40
2006,03,12,15,38,9.40
2006,03,12,15,39,9.40
2006,03,12,15,40,9.30
2006,03,12,15,41,9.20
2006,03,12,15,42,9.10
2006,03,12,15,43,9.00
2006,03,12,15,44,9.00
2006,03,12,15,45,9.00
2006,03,12,15,46,8.90
2006,03,12,15,47,8.90
2006,03,12,15,48,9.00
2006,03,12,15,49,9.00
2006,03,12,15,50,9.10
2006,03,12,15,51,9.20
2006,03,12,15,52,9.10
2006,03,12,15,53,9.10
2006,03,12,15,54,9.00
2006,03,12,15,55,9.00
2006,03,12,15,56,8.90
2006,03,12,15,57,8.90
2006,03,12,15,58,8.90
2006,03,12,15,59,8.90
2006,03,12,16,00,9.00
2006,03,12,16,01,9.00
2006,03,12,16,02,9.10
2006,03,12,16,03,9.20
2006,03,12,16,04,9.20
2006,03,12,16,05,9.20
2006,03,12,16,06,9.10
2006,03,12,16,07,8.90
2006,03,12,16,08,8.90
2006,03,12,16,09,8.80
2006,03,12,16,10,8.80
2006,03,12,16,11,8.80
2006,03,12,16,12,8.80
2006,03,12,16,13,8.80
2006,03,12,16,14,8.90
2006,03,12,16,15,8.90
2006,03,12,16,16,9.00
2006,03,12,16,17,9.10
2006,03,12,16,18,9.10
2006,03,12,16,19,9.10
2006,03,12,16,20,9.20
2006,03,12,16,21,9.20
2006,03,12,16,22,9.10
2006,03,12,16,23,9.00
2006,03,12,16,24,9.00
2006,03,12,16,25,8.90
2006,03,12,16,26,8.90
2006,03,12,16,27,8.80
2006,03,12,16,28,8.90
2006,03,12,16,29,8.90
2006,03,12,16,30,8.90
2006,03,12,16,31,8.90
2006,03,12,16,32,8.90
2006,03,12,16,33,9.00
2006,03,12,16,34,9.10
2006,03,12,16,35,9.20
2006,03,12,16,36,9.20
2006,03,12,16,37,9.20
2006,03,12,16,38,9.20
2006,03,12,16,39,9.20
2006,03,12,16,40,9.20
2006,03,12,16,41,9.20
2006,03,12,16,42,9.10
2006,03,12,16,43,9.00
2006,03,12,16,44,9.00
2006,03,12,16,45,8.90
2006,03,12,16,46,8.90
2006,03,12,16,47,8.80
2006,03,12,16,48,8.80
2006,03,12,16,49,8.70
2006,03,12,16,50,8.70
2006,03,12,16,51,8.70
2006,03,12,16,52,8.60
2006,03,12,16,53,8.60
2006,03,12,16,54,8.50
2006,03,12,16,55,8.40
2006,03,12,16,56,8.40
2006,03,12,16,57,8.30
2006,03,12,16,58,8.30
2006,03,12,16,59,8.30
2006,03,12,17,00,8.20
2006,03,12,17,01,8.20
2006,03,12,17,02,8.30
2006,03,12,17,03,8.20
2006,03,12,17,04,8.20
2006,03,12,17,05,8.20
2006,03,12,17,06,8.20
2006,03,12,17,07,8.20
2006,03,12,17,08,8.20
2006,03,12,17,09,8.20
2006,03,12,17,10,8.10
2006,03,12,17,11,8.00
2006,03,12,17,12,7.90
2006,03,12,17,13,7.90
2006,03,12,17,14,7.80
2006,03,12,17,15,7.80
2006,03,12,17,16,7.80
2006,03,12,17,17,7.70
2006,03,12,17,18,7.70
2006,03,12,17,19,7.60
2006,03,12,17,20,7.60
2006,03,12,17,21,7.60
2006,03,12,17,22,7.50
2006,03,12,17,23,7.50
2006,03,12,17,24,7.50
2006,03,12,17,25,7.40
2006,03,12,17,26,7.40
2006,03,12,17,27,7.40
2006,03,12,17,28,7.40
2006,03,12,17,29,7.40
2006,03,12,17,30,7.40
2006,03,12,17,31,7.40
2006,03,12,17,32,7.40
2006,03,12,17,33,7.50
2006,03,12,17,34,7.50
2006,03,12,17,35,7.50
2006,03,12,17,36,7.50
2006,03,12,17,37,7.50
2006,03,12,17,38,7.50
2006,03,12,17,39,7.50
2006,03,12,17,40,7.50
2006,03,12,17,41,7.50
2006,03,12,17,42,7.50
2006,03,12,17,43,7.50
2006,03,12,17,44,7.50
2006,03,12,17,45,7.50
2006,03,12,17,46,7.40
2006,03,12,17,47,7.40
2006,03,12,17,48,7.40
2006,03,12,17,49,7.40
2006,03,12,17,50,7.40
2006,03,12,17,51,7.40
2006,03,12,17,52,7.30
2006,03,12,17,53,7.30
2006,03,12,17,54,7.30
2006,03,12,17,55,7.30
2006,03,12,17,56,7.30
2006,03,12,17,57,7.20
2006,03,12,17,58,7.20
2006,03,12,17,59,7.10
2006,03,12,18,00,7.10
2006,03,12,18,01,7.10
2006,03,12,18,02,7.00